Mobile, AL

12:54 AM CDT on March 24, 2017 (GMT -0500)
Mobile Regional

Weather History for KMOB - November, 2010

Change the Weather History Date:

Thursday, November 11, 2010

  Actual Average Record
Temperature  
Mean Temperature 61 °F 61 °F  
Max Temperature 79 °F 72 °F 83 °F (1985)
Min Temperature 43 °F 50 °F 31 °F (2011)
Degree Days  
Heating Degree Days 4 6  
Month to date heating degree days 88 52  
Since 1 July heating degree days 112 107  
Cooling Degree Days 0 2  
Month to date cooling degree days 9 23  
Year to date cooling degree days 2764 2485  
Growing Degree Days 12 (Base 50)    
Moisture  
Dew Point 45 °F    
Average Humidity 59    
Maximum Humidity 93    
Minimum Humidity 25    
Precipitation  
Precipitation 0.00 in 0.17 in 3.25 in (2004)
Month to date precipitation 1.75 1.88  
Year to date precipitation 54.31 57.84  
Snow  
Snow 0.00 in 0.00 in 0.00 in (2002)
Month to date snowfall 0.0 0.0  
Since 1 July snowfall 0.0 0.0  
Snow Depth 0.00 in    
Sea Level Pressure  
Sea Level Pressure 30.24 in    
Wind  
Wind Speed 2 mph (NNE)    
Max Wind Speed 8 mph    
Max Gust Speed 13 mph    
Visibility 10 miles    
Events      
T = Trace of Precipitation, MM = Missing Value Source: NWS Daily Summary

Daily Weather History Graph

Daily Weather History Graph

Search for Another Location

Airport or City:

Trip Planner

Search our weather history database for the weather conditions in past years. The results will help you decide how hot, cold, wet, or windy it might be!

Date:

Astronomy

Nov. 11, 2010 Rise Set
Actual Time 6:15 AM CST 4:57 PM CST
Civil Twilight 5:50 AM CST 5:23 PM CST
Nautical Twilight 5:21 AM CST 5:51 PM CST
Astronomical Twilight 4:53 AM CST 6:20 PM CST
Moon 11:12 AM CST (11/11) 10:04 PM CST (11/11)
Length of Visible Light 11h 32m
Length of Day
10h 41m
Waxing Crescent, 32% of the Moon is Illuminated
Nov 11
Waxing Crescent
Nov 13
First Quarter
Nov 21
Full
Nov 28
Last Quarter
Dec 5
New

Hourly Weather History & Observations

Time (CST) Temp. Windchill Dew Point Humidity Pressure Visibility Wind Dir Wind Speed Gust Speed Precip Events Conditions
12:56 AM 45.0 °F - 43.0 °F 93% 30.17 in 7.0 mi Calm Calm - N/A   Clear
1:56 AM 48.0 °F - 45.0 °F 89% 30.17 in 10.0 mi Calm Calm - N/A   Clear
2:56 AM 46.9 °F - 44.1 °F 90% 30.18 in 10.0 mi NNE 3.5 mph - N/A   Clear
3:56 AM 45.0 °F 43.5 °F 43.0 °F 93% 30.19 in 10.0 mi North 3.5 mph - N/A   Clear
4:56 AM 46.0 °F 44.8 °F 42.1 °F 86% 30.20 in 10.0 mi North 3.5 mph - N/A   Partly Cloudy
5:56 AM 46.9 °F - 43.0 °F 86% 30.22 in 10.0 mi Calm Calm - N/A   Partly Cloudy
6:56 AM 51.1 °F - 44.1 °F 77% 30.23 in 10.0 mi NNE 3.5 mph - N/A   Partly Cloudy
7:56 AM 59.0 °F - 48.0 °F 67% 30.25 in 10.0 mi NNE 4.6 mph - N/A   Partly Cloudy
8:56 AM 64.9 °F - 46.9 °F 52% 30.26 in 10.0 mi NNE 4.6 mph - N/A   Scattered Clouds
9:56 AM 70.0 °F - 46.0 °F 42% 30.27 in 10.0 mi NNE 4.6 mph - N/A   Scattered Clouds
10:56 AM 73.9 °F - 44.1 °F 34% 30.27 in 10.0 mi NE 5.8 mph - N/A   Partly Cloudy
11:56 AM 77.0 °F - 39.9 °F 26% 30.25 in 10.0 mi Variable 3.5 mph - N/A   Partly Cloudy
12:56 PM 78.1 °F - 39.0 °F 25% 30.23 in 10.0 mi Variable 3.5 mph - N/A   Scattered Clouds
1:56 PM 79.0 °F - 39.9 °F 25% 30.23 in 10.0 mi Calm Calm - N/A   Scattered Clouds
2:56 PM 75.2 °F - 41.0 °F 29% 30.23 in 10.0 mi Calm Calm - N/A   Scattered Clouds
3:56 PM 77.0 °F - 41.0 °F 28% 30.23 in 10.0 mi ENE 3.5 mph - N/A   Scattered Clouds
4:56 PM 66.9 °F - 48.0 °F 51% 30.24 in 10.0 mi Calm Calm - N/A   Scattered Clouds
5:56 PM 62.1 °F - 48.0 °F 60% 30.25 in 10.0 mi Calm Calm - N/A   Scattered Clouds
6:56 PM 57.9 °F - 48.9 °F 72% 30.27 in 10.0 mi Calm Calm - N/A   Scattered Clouds
7:56 PM 55.9 °F - 48.9 °F 77% 30.28 in 10.0 mi Calm Calm - N/A   Partly Cloudy
8:56 PM 54.0 °F - 48.0 °F 80% 30.28 in 10.0 mi Calm Calm - N/A   Partly Cloudy
9:56 PM 55.0 °F - 48.0 °F 77% 30.28 in 10.0 mi Calm Calm - N/A   Clear
10:56 PM 52.0 °F - 48.0 °F 86% 30.27 in 10.0 mi Calm Calm - N/A   Clear
11:56 PM 52.0 °F - 48.0 °F 86% 30.27 in 10.0 mi Calm Calm - N/A   Partly Cloudy